Overview Statistics Trail Chart Weather Telemetry Raw packets
 

This is the latest recevied weather packets stored in our database for station/object S51UL-6. If no packets are shown the sender has not sent any weather packets the latest 10 day(s).

<< 1 2 3 4 5 >>
Time Temp. Humidity Pressure Rain* Wind** Luminosity Snow
1788686117 24.44° C 58% 1027.1 hPa 1.02 mm - - -
1788685518 24.44° C 59% 1027.1 hPa 1.02 mm - - -
1788684918 24.44° C 61% 1027.1 hPa 19.05 mm - - -
1788684618 23.89° C 62% 1027.1 hPa 18.54 mm - - -
1788684318 23.89° C 63% 1027.3 hPa 39.88 mm - - -
1788684018 23.89° C 63% 1027.3 hPa 56.9 mm - - -
1788683718 23.89° C 63% 1027.5 hPa 69.85 mm - - -
1788683118 23.33° C 69% 1027.5 hPa 81.28 mm - - -
1788682518 22.78° C 69% 1027.4 hPa 85.09 mm - - -
1788682218 22.78° C 71% 1027.5 hPa 92.2 mm - - -
1788681318 22.22° C 80% 1027.6 hPa 94.23 mm - - -
1788680418 20° C 85% 1027.5 hPa 72.64 mm - - -
1788679519 18.33° C 91% 1027.4 hPa 92.71 mm - - -
1788678919 17.78° C 92% 1027.5 hPa 100.08 mm - - -
1788678619 16.67° C 92% 1027.4 hPa 105.16 mm - - -
1788677419 16.11° C 92% 1027.6 hPa 79.76 mm - - -
1788677119 16.11° C 92% 1027.5 hPa 83.31 mm - - -
1788676819 16.11° C 92% 1027.5 hPa 58.93 mm - - -
1788675920 15.56° C 92% 1027.6 hPa 26.42 mm - - -
1788675620 15.56° C 92% 1027.5 hPa 26.42 mm - - -
1788675319 15.56° C 92% 1027.4 hPa 12.45 mm - - -
1788674420 15° C 92% 1027.2 hPa 6.1 mm - - -
1788674120 14.44° C 92% 1027.1 hPa 6.1 mm - - -
1788673520 14.44° C 92% 1026.9 hPa 2.54 mm - - -
1788673220 14.44° C 92% 1026.8 hPa 2.03 mm - - -

* Rain latest hour (hover to see other rain measurements)
** Current wind speed in m/s (hover to see current wind gust speed)